Home   Weather   Columbia   Past weeks

Flag for USA Past Weather in Columbia, South Carolina, USA — Yesterday and Last 2 Weeks

Now
46 °F

Light rain. Fog.


Feels Like: 46 °F
Forecast: 46 / 58 °F
Wind: No wind

Location: Columbia Owens Downtown Airport

Current Time: Dec 4, 2016 at 11:45:58 pm

Latest Report: Dec 4, 2016 at 10:59 pm


Visibility: 3 mi

Pressure: 30.07 "Hg

Humidity: 89%

Dew Point: 43 °F

Location of ColumbiaLocation

Past Weather in Columbia — Graph

°F

Columbia Temperature Yesterday

Maximum temperature yesterday: 56 °F (at 2:53 pm)
Minimum temperature yesterday: 38 °F (at 6:53 am)
Average temperature yesterday: 49 °F

High & Low Weather Summary for the Past Weeks

 TemperatureHumidityPressure
High76 °F (Nov 24, 3:53 pm)94% (Nov 30, 12:53 am)30.36 "Hg (Nov 30, 12:53 am)
Low32 °F (Nov 21, 6:53 am)15% (Nov 21, 1:53 pm)29.75 "Hg (Nov 30, 4:53 pm)
Average54 °F66%30.14 "Hg
* Reported Nov 19 10:53 pm — Dec 4 10:53 pm, Columbia, Weather by CustomWeather, © 2016

Note: Actual official high and low records may vary slightly from our data, if they occured in-between our weather recording intervals... More about our weather records

Advertising

Columbia Weather History for the Previous 24 Hours

Scroll right to see more
 ConditionsComfort  
Time TempWeatherWind HumidityBarometerVisibility
10:53 pm
Sun, Dec 4
46 °FRain. Fog.No wind89%30.07 "Hg2 mi
9:53 pm46 °FLight rain. Fog.No wind89%30.09 "Hg4 mi
8:53 pm46 °FLight rain. Fog.No wind89%30.09 "Hg5 mi
7:53 pm46 °FFog.No wind86%30.11 "Hg6 mi
6:53 pm46 °FLight rain. Overcast.5 mph89%30.11 "Hg9 mi
5:53 pm46 °FLight rain. Overcast.No wind89%30.13 "Hg9 mi
4:53 pm47 °FLight rain. Mostly cloudy.3 mph83%30.13 "Hg6 mi
3:53 pm48 °FLight rain. Overcast.7 mph77%30.15 "Hg9 mi
2:53 pm49 °FOvercast.3 mph71%30.16 "Hg10 mi
1:53 pm48 °FOvercast.5 mph77%30.17 "Hg10 mi
12:53 pm49 °FOvercast.5 mph71%30.19 "Hg10 mi
11:53 am49 °FOvercast.5 mph66%30.23 "Hg10 mi
10:53 am49 °FOvercast.3 mph64%30.26 "Hg10 mi
9:53 am49 °FOvercast.6 mph64%30.25 "Hg10 mi
8:53 am48 °FOvercast.5 mph71%30.25 "Hg10 mi
7:53 am48 °FMostly cloudy.No wind74%30.24 "Hg10 mi
6:53 am48 °FOvercast.3 mph77%30.24 "Hg10 mi
5:53 am48 °FOvercast.No wind80%30.25 "Hg10 mi
4:53 am49 °FOvercast.No wind80%30.24 "Hg9 mi
3:53 am49 °FOvercast.No wind86%30.24 "Hg8 mi
2:53 am49 °FOvercast.No wind84%30.25 "Hg9 mi
1:53 am49 °FOvercast.No wind80%30.26 "Hg10 mi
12:53 am50 °FOvercast.No wind77%30.23 "Hg10 mi
11:53 pm
Sat, Dec 3
50 °FMostly cloudy.No wind77%30.24 "Hg10 mi
Weather by CustomWeather, © 2016

See weather overviewHow to use our weather pages